SCP
-0 -0 -0 -0 -0 -0 0 0 0 0 0 0 0 0 0 0 0 0 0 0 0 0
-0 -0 -0 -0 -0 -0 -0 -0 0 -0 -0 -0 -0 0 0 0 0 0 0 0 0 0
-0 -0 -0 -0 -0 -0 -0 -0 -0 -0 -0 -0 -0 -0 -0 0 0 0 0 0 0 0
-0 -0 -0 -0 -0 -0 -0 -0 -0 -0 0 -0 -0 -0 -0 0 0 -0 0 0 0 0
-0 -0 -0 -0 0 0 -0 0 -0 0 0 0 -0 0 -0 -0 0 -0 0 0 0 -0
0 -0 -0 -0 -0 0 0 -0 0 0 0 0 -0 0 0 0 0 -0 0 -0 0 -0
0 0 0 -0 0 0 -0 -0 0 0 -0 0 0 0 0 0 0 0 0 0 0 0
0 0 0 0 0 0 0 0 -0 0 0 0 0 0 0 0 0 0 0 0 0 0
0 0 0 0 0 0 0 0 0 0 0 0 0 0 0 0 0 0 0 0 0 0
0 0 0 0 0 0 0 0 0 0 0 0 0 0 0 0 0 0 0 0 0 0
0 0 0 0 0 0 0 0 0 0 0 0 0 0 0 0 0 0 0 0 0 0
0 0 0 0 0 0 0 0 0 0 0 0 0 0 0 0 0 0 0 0 0 0
0 0 0 0 0 0 0 0 0 0 0 0 0 0 0 0 0 0 0 0 0 0
0 0 -0 0 0 0 0 0 0 0 0 0 0 0 0 0 0 0 0 0 0 0
Wind_Speed_500mb
52 45 40 35 36 34 29 23 23 23 19 20 22 19 29 22 21 19 16 15 10 8
55 50 47 44 39 36 33 30 27 26 22 16 19 21 22 22 26 23 19 17 14 14
61 55 53 53 48 43 38 34 32 38 34 26 23 27 26 21 21 20 25 25 24 19
67 63 56 58 47 49 43 39 30 36 42 37 30 29 29 26 27 24 24 27 24 24
61 69 62 59 56 54 50 45 35 30 42 37 34 28 29 27 27 26 26 27 34 29
58 67 68 63 60 58 50 46 41 37 41 42 40 35 36 36 35 32 33 31 29 28
62 63 68 67 67 70 58 50 45 44 42 41 41 41 41 43 46 44 37 31 28 28
67 65 64 64 65 69 67 58 51 46 42 45 48 49 48 44 40 37 36 34 34 30
69 65 64 65 61 64 65 65 60 56 52 47 46 44 45 43 39 38 36 34 31 30
65 63 62 63 57 58 56 56 58 53 51 51 48 48 48 45 42 40 39 38 40 36
62 56 59 64 61 58 57 58 57 54 50 48 49 49 47 42 41 41 40 37 38 36
55 54 57 62 62 60 60 57 57 50 51 53 52 48 48 48 46 45 43 39 30 30
44 56 64 59 55 57 55 55 53 57 54 50 47 51 55 44 45 45 33 33 31 31
35 34 48 55 58 56 57 54 58 56 55 48 46 43 40 22 21 24 29 30 30 31
Wind_Direction_500mb
218 215 219 220 219 226 226 223 216 215 198 201 209 204 202 213 223 231 233 229 243 265
222 220 217 220 221 222 228 231 227 212 210 215 208 212 215 232 242 241 237 234 248 264
224 227 221 223 231 226 221 219 236 225 225 225 230 230 233 240 256 255 249 254 259 261
225 227 226 225 227 215 217 224 239 242 231 227 233 235 242 253 262 258 257 256 264 255
226 226 229 225 225 221 224 230 237 244 217 227 234 237 244 252 258 260 272 277 256 254
231 226 227 223 222 223 228 228 231 229 227 243 239 242 250 262 265 271 278 276 255 255
232 233 230 225 225 228 233 233 232 235 238 241 241 247 255 265 266 267 265 259 260 259
231 237 234 229 228 229 233 237 241 243 244 246 248 251 254 260 260 261 258 253 260 264
232 235 235 230 229 230 235 235 236 242 244 247 248 251 255 256 255 257 257 252 249 258
235 236 234 226 225 226 229 228 231 237 241 244 250 254 255 255 257 260 255 251 245 249
232 237 232 226 226 228 227 230 233 237 241 246 248 250 251 251 249 248 247 242 241 246
228 234 238 237 235 231 230 232 232 237 241 243 249 254 253 249 247 246 244 242 251 257
258 249 243 238 239 238 235 237 240 240 243 243 247 256 259 256 240 237 233 239 240 243
241 262 257 252 239 240 240 236 240 240 238 233 239 250 260 241 216 228 242 239 242 249
Wind_Speed_850mb
52 45 40 35 36 34 29 23 23 23 19 20 22 19 29 22 21 19 16 15 10 8
55 50 47 44 39 36 33 30 27 26 22 16 19 21 22 22 26 23 19 17 14 14
61 55 53 53 48 43 38 34 32 38 34 26 23 27 26 21 21 20 25 25 24 19
67 63 56 58 47 49 43 39 30 36 42 37 30 29 29 26 27 24 24 27 24 24
61 69 62 59 56 54 50 45 35 30 42 37 34 28 29 27 27 26 26 27 34 29
58 67 68 63 60 58 50 46 41 37 41 42 40 35 36 36 35 32 33 31 29 28
62 63 68 67 67 70 58 50 45 44 42 41 41 41 41 43 46 44 37 31 28 28
67 65 64 64 65 69 67 58 51 46 42 45 48 49 48 44 40 37 36 34 34 30
69 65 64 65 61 64 65 65 60 56 52 47 46 44 45 43 39 38 36 34 31 30
65 63 62 63 57 58 56 56 58 53 51 51 48 48 48 45 42 40 39 38 40 36
62 56 59 64 61 58 57 58 57 54 50 48 49 49 47 42 41 41 40 37 38 36
55 54 57 62 62 60 60 57 57 50 51 53 52 48 48 48 46 45 43 39 30 30
44 56 64 59 55 57 55 55 53 57 54 50 47 51 55 44 45 45 33 33 31 31
35 34 48 55 58 56 57 54 58 56 55 48 46 43 40 22 21 24 29 30 30 31
Wind_Direction_850mb
218 215 219 220 219 226 226 223 216 215 198 201 209 204 202 213 223 231 233 229 243 265
222 220 217 220 221 222 228 231 227 212 210 215 208 212 215 232 242 241 237 234 248 264
224 227 221 223 231 226 221 219 236 225 225 225 230 230 233 240 256 255 249 254 259 261
225 227 226 225 227 215 217 224 239 242 231 227 233 235 242 253 262 258 257 256 264 255
226 226 229 225 225 221 224 230 237 244 217 227 234 237 244 252 258 260 272 277 256 254
231 226 227 223 222 223 228 228 231 229 227 243 239 242 250 262 265 271 278 276 255 255
232 233 230 225 225 228 233 233 232 235 238 241 241 247 255 265 266 267 265 259 260 259
231 237 234 229 228 229 233 237 241 243 244 246 248 251 254 260 260 261 258 253 260 264
232 235 235 230 229 230 235 235 236 242 244 247 248 251 255 256 255 257 257 252 249 258
235 236 234 226 225 226 229 228 231 237 241 244 250 254 255 255 257 260 255 251 245 249
232 237 232 226 226 228 227 230 233 237 241 246 248 250 251 251 249 248 247 242 241 246
228 234 238 237 235 231 230 232 232 237 241 243 249 254 253 249 247 246 244 242 251 257
258 249 243 238 239 238 235 237 240 240 243 243 247 256 259 256 240 237 233 239 240 243
241 262 257 252 239 240 240 236 240 240 238 233 239 250 260 241 216 228 242 239 242 249